Location: Ammerl�gen
(47.2167°N, 9.6000°E)
Time: 03:22:13
(UTC+00:00)

Cosmos 1634 Rocket - Pass Details

Date: 21 April 2021
Orbit: 959 x 993 km, 82.9° (Epoch: 16 May)

Event Time Altitude Azimuth Distance (km) Brightness Sun altitude
Rises 19:29:00 0° 193° (SSW) 3,680 6.8 -11.5°
Reaches altitude 10° 19:31:31 10° 195° (SSW) 2,732 6.2 -11.9°
Maximum altitude 19:37:47 73° 280° (W) 1,022 4.3 -12.7°
Drops below altitude 10° 19:44:02 10° 6° (N) 2,726 6.7 -13.6°
Sets 19:46:33 0° 8° (N) 3,672 7.4 -14.0°
